Погода в Покрове

Россия / Владимирская область     55°54′59″N   39°10′24″E
темп.,
°C
ветер,
м/с
пор.,
м/с
влажн.,
%
обл.,
%
осадки,
мм/ч
давл.,
гПа
погр.,
м
10 апреля, сб
сб1000:00−2ю26922 0.0 102794
03:00−3ю26930 0.0 1027100
06:00−2ююв28924 0.0 1028126
09:00+5ю37692 0.0 1027405
12:00+8ююз46483 0.0 10271710
15:00+9ююз35494 0.0 10261695
18:00+6ююв25701 0.0 102588
21:00+1ююв26810 0.0 102682
11 апреля, вс
вс1100:000ю27830 0.0 1026103
03:00−1ююз24880 0.0 102759
06:00−1ююз23890 0.0 102861
09:00+7юз24665 0.0 1029322
12:00+11юз34530 0.0 1030814
15:00+13ююз23470 0.0 10301231
18:00+10юв11701 0.0 103010
21:00+5вюв11845 0.0 103210
12 апреля, пн
пн1200:00+3вюв118894 0.0 103310
03:00+2вюв229086 0.0 103416
06:00+1в239098 0.0 103449
09:00+8в3767100 0.0 1033311
12:00+11в4749100 0.0 1032638
15:00+11в4760100 0.0 1030567
18:00+10в2683100 0.0 1029216
21:00+8в3995100 0.0 1029248
13 апреля, вт
вт1300:00+7в3897100 0.0 1028169
03:00+7вюв2797100 0.0 1027138
06:00+7юв2894100 0.0 1026155
09:00+12ююв387186 0.0 1025330
12:00+18ю484413 0.0 10251116
15:00+19ю463658 0.0 10241820
18:00+16ююв365142 0.0 1023150
21:00+11ююв256555 0.0 102480
14 апреля, ср
ср1400:00+9юв227034 0.0 102426
03:00+8юв227557 0.0 102422
06:00+8юв248073 0.0 102358
09:00+13ююв366249 0.0 1023303
12:00+18ююв4646100 0.0 1022983
15:00+20ююв593798 0.0 10201801
18:00+16юв3947100 0.0 1019290
21:00+12юв3964100 0.0 1019152